User: anonymous   Login
Location: Unspecified
(0.0000°N, 0.0000°E)
Time: 06:32:52
(UTC+01:00)
Language:

ATLAS V CENTAUR R/B - Orbit

View from above orbital plane
View from above orbital plane
View from above satellite
View from above satellite

Ground track
Ground track

The orbit data is extracted from the following two-line orbital elements,

1 27500U 02038B   14303.37736741  .00011356  00000-0  18967-2 0   154
2 27500 017.7688 202.9799 6941422 103.3207 069.7238 02.72837018 98476
Epoch (UTC): 30 October 2014 09:03:24
Eccentricity: 0.6941422
inclination: 17.7688°
perigee height: 239 km
apogee height: 30272 km
right ascension of ascending node: 202.9799°
argument of perigee: 103.3207°
revolutions per day: 2.72837018
mean anomaly at epoch: 69.7238°
orbit number at epoch: 9847

The dashed part of the orbit path shows where the satellite is in the earth's shadow,  

DLR